Regional Weather Roundup
Issued by NWS

Home | Current Version | Previous Version | Text Only | Print | Product List | Glossary Off
Versions: 1 2 3 4 5 6 7 8 9 10 11 12 13 14 15 16 17 18 19 20 21 22 23 24 25 26 27 28 29 30 31 32 33 34 35 36 37 38 39 40 41 42 43 44 45 46 47 48

000
ASUS45 KBOI 011410
RWRID
WEATHER ROUNDUP FOR IDAHO
NATIONAL WEATHER SERVICE BOISE ID
800 AM MDT WED OCT 01 2014

NOTE: "FAIR" INDICATES FEW OR NO CLOUDS BELOW 12000 FEET
WITH NO SIGNIFICANT WEATHER AND/OR OBSTRUCTIONS TO VISIBILITY

IDZ012-014-011500-
SOUTHWEST IDAHO


CITY           SKY/WX    TMP DP  RH WIND       PRES   REMARKS
BOISE          CLEAR     42  37  82 NW3       30.14R
CALDWELL       CLEAR     43  30  61 W5        30.16R
MOUNTAIN HOME  CLEAR     42  41  98 NW12      30.12R
$$

IDZ016-017-011500-
SOUTHCENTRAL IDAHO


CITY           SKY/WX    TMP DP  RH WIND       PRES   REMARKS
BURLEY         RAIN      41  38  89 W8        30.09R FOG
JEROME         MOCLDY    38  35  89 S3        30.10R
TWIN FALLS     PTCLDY    40  35  83 SW9       30.10R WCI  34
$$

IDZ019>023-011500-
SOUTHEAST IDAHO


CITY           SKY/WX    TMP DP  RH WIND       PRES   REMARKS
IDAHO FALLS    MOCLDY    41  38  89 SW6       30.04R
POCATELLO      LGT RAIN  42  40  92 S9        30.06R
REXBURG        PTCLDY    37  35  92 S3        30.03R
$$

IDZ006-010-011-018-031-032-011500-
CENTRAL IDAHO MOUNTAINS


CITY           SKY/WX    TMP DP  RH WIND       PRES   REMARKS
MCCALL         PTCLDY    31  30  96 CALM      30.12R
HAILEY         PTCLDY    36  28  75 W6        30.09R WCI  31
STANLEY          N/A     31  29  92 CALM      30.12R
SALMON         MOCLDY    43  37  81 CALM      30.09R
CHALLIS        CLOUDY    41  35  79 CALM      30.09R
$$

IDZ002-004-006-007-026-011500-
NORTHERN IDAHO


CITY           SKY/WX    TMP DP  RH WIND       PRES   REMARKS
LEWISTON       CLEAR     44  41  89 SE3       30.14R
LOWELL           N/A     48  46  93 CALM      30.17R
COEUR D`ALENE  PTCLDY    43  37  81 S9        30.09S
MULLAN PASS    FOG       32  32 100 VRB6      30.06R VSB 1   WCI  26
$$



USA.gov is the U.S. government's official web portal to all federal, state and local government web resources and services.